FW8253 Weather Reports


time (UTC)temp
C
wind
direction
speed
KPH
gust
KPH
rain 1hr
cm
rain 24hr
cm
rain mn
cm
humidity
%
barometer
mb
20260508062413 15 196 0.0 0.0 0.00 0.00 0.00 92 1015.3
20260508061909 15 197 0.0 0.0 0.00 0.00 0.00 94 1015.2
20260508061407 15 197 0.0 0.0 0.00 0.00 0.00 94 1015.3
20260508060903 15 197 0.0 0.0 0.00 0.00 0.00 94 1015.3
20260508060401 15 197 0.0 0.0 0.00 0.00 0.00 94 1015.5
20260508055901 15 197 0.0 0.0 0.00 0.00 0.00 94 1015.3
20260508055359 15 197 0.0 0.0 0.00 0.00 0.00 94 1015.3
20260508054855 15 197 0.0 0.0 0.00 0.00 0.00 93 1015.3
20260508054352 15 196 0.0 0.0 0.00 0.00 0.00 94 1015.3
20260508053849 15 197 0.0 0.0 0.00 0.00 0.00 94 1015.5
20260508053347 15 197 0.0 0.0 0.00 0.00 0.00 93 1015.2
20260508052844 15 197 0.0 0.0 0.00 0.00 0.00 92 1015.2
20260508052342 15 197 0.0 0.0 0.00 0.00 0.00 92 1015.4
20260508051837 16 197 0.0 0.0 0.00 0.00 0.00 90 1015.4
20260508051333 16 196 0.0 0.0 0.00 0.00 0.00 90 1015.2
20260508050829 16 196 0.0 0.0 0.00 0.00 0.00 89 1015.1
20260508050327 16 201 0.0 0.0 0.00 0.00 0.00 90 1015.2
20260508045822 16 254 0.0 0.0 0.00 0.00 0.00 91 1015.2
20260508045320 16 219 0.0 0.0 0.00 0.00 0.00 91 1015.3
20260508044818 16 232 0.0 0.0 0.00 0.00 0.00 92 1015.2
20260508044314 16 200 0.0 0.0 0.00 0.00 0.00 92 1015.2
20260508043810 16 201 0.0 0.0 0.00 0.00 0.00 92 1015.0
20260508043308 16 200 0.0 0.0 0.00 0.00 0.00 91 1015.0
20260508042804 17 201 0.0 0.0 0.00 0.00 0.00 89 1014.9
20260508042306 17 201 0.0 0.0 0.00 0.00 0.00 88 1014.9
20260508041758 17 201 0.0 0.0 0.00 0.00 0.00 87 1014.8
20260508041255 17 201 0.0 0.0 0.00 0.00 0.00 86 1014.6
20260508040751 17 200 0.0 0.0 0.00 0.00 0.00 86 1014.9
20260508040248 17 200 0.0 0.0 0.00 0.00 0.00 85 1014.9
20260508035746 17 199 0.0 0.0 0.00 0.13 0.13 85 1015.0
20260508035243 18 217 0.0 0.0 0.00 0.13 0.13 84 1014.8
20260508034739 18 206 0.0 0.0 0.00 0.13 0.13 84 1014.9
20260508034237 18 193 0.0 0.0 0.00 0.13 0.13 85 1014.8
20260508033734 18 225 0.0 0.0 0.00 0.13 0.13 85 1014.9
20260508033232 18 226 0.0 0.0 0.00 0.13 0.13 83 1014.7
20260508032729 18 229 0.0 0.0 0.00 0.13 0.13 84 1014.6
20260508032226 18 222 0.0 0.0 0.00 0.13 0.13 84 1014.7
20260508031723 18 210 0.0 0.0 0.00 0.13 0.13 87 1014.6
20260508031219 19 7 0.0 0.0 0.00 0.13 0.13 82 1014.6
20260508030716 18 141 0.0 0.0 0.00 0.13 0.13 83 1014.4
20260508030214 18 71 0.0 0.0 0.00 0.13 0.13 87 1014.6
20260508025710 19 215 0.0 0.0 0.00 0.13 0.13 88 1014.4
20260508025207 20 202 0.0 0.0 0.00 0.13 0.13 85 1014.5
20260508024703 19 220 0.0 0.0 0.00 0.13 0.13 88 1014.3
20260508024200 19 233 0.0 0.0 0.00 0.13 0.13 86 1014.2
20260508023656 19 144 0.0 0.0 0.00 0.13 0.13 87 1014.0
20260508023154 20 250 0.0 0.0 0.00 0.13 0.13 87 1013.7
20260508022649 20 124 0.0 0.0 0.00 0.13 0.13 90 1013.9
20260508022147 20 231 0.0 0.0 0.00 0.13 0.13 91 1013.9
20260508021643 20 173 0.0 0.0 0.00 0.13 0.13 90 1014.0
20260508021138 20 229 0.0 0.0 0.00 0.13 0.13 89 1013.9
20260508020636 20 206 0.0 0.0 0.00 0.13 0.13 88 1013.7
20260508020134 20 228 0.0 0.0 0.00 0.13 0.13 91 1013.6
20260508015631 20 68 0.0 0.0 0.00 0.13 0.13 90 1013.7
20260508015128 20 226 0.0 0.0 0.00 0.13 0.13 91 1013.4
20260508014624 20 234 0.0 0.0 0.00 0.13 0.13 92 1013.0
20260508014121 20 228 0.0 0.0 0.00 0.13 0.13 93 1013.2
20260508013617 20 198 0.0 0.0 0.00 0.13 0.13 92 1013.1
20260508013114 20 244 0.0 0.0 0.00 0.13 0.13 94 1012.9
20260508012611 20 206 0.0 0.0 0.00 0.13 0.13 94 1012.8
20260508012108 20 206 0.0 0.0 0.00 0.13 0.13 95 1012.7
20260508011607 20 227 0.0 0.0 0.00 0.13 0.13 95 1012.5
20260508011104 20 230 0.0 0.0 0.00 0.13 0.13 95 1012.4
20260508010600 20 226 0.0 0.0 0.00 0.13 0.13 95 1012.4
20260508010058 20 201 0.0 0.0 0.00 0.13 0.13 97 1012.4
20260508005554 20 237 0.0 0.0 0.00 0.13 0.13 97 1012.3
20260508005051 20 218 0.0 0.0 0.00 0.13 0.13 98 1012.3
20260508004547 20 240 0.0 0.0 0.00 0.13 0.13 98 1012.0
20260508004044 21 236 0.0 0.0 0.00 0.13 0.13 98 1012.1
20260508003540 21 209 0.0 0.0 0.00 0.13 0.13 98 1011.8
20260508003038 21 223 0.0 0.0 0.00 0.13 0.13 98 1011.6
20260508002534 21 224 0.0 0.0 0.00 0.13 0.13 98 1011.6
20260508002032 21 222 0.0 0.0 0.00 0.13 0.13 97 1011.6
20260508001527 21 232 0.0 0.0 0.00 0.13 0.13 97 1011.5
20260508001023 21 183 0.0 0.0 0.00 0.13 0.13 96 1011.6
20260508000519 21 227 0.0 0.0 0.00 0.13 0.13 96 1011.4
20260508000017 22 230 0.0 0.0 0.00 0.13 0.13 96 1011.4
20260507235513 22 202 0.0 0.0 0.00 0.13 0.13 95 1011.4
20260507235011 22 208 0.0 0.0 0.00 0.13 0.13 93 1011.4
20260507234507 22 242 0.0 0.0 0.00 0.13 0.13 94 1011.2
20260507234004 22 225 0.0 0.0 0.00 0.13 0.13 93 1011.3
20260507233500 22 201 0.0 0.0 0.00 0.13 0.13 92 1011.1
20260507232959 22 208 0.0 0.0 0.00 0.13 0.13 93 1010.8
20260507232455 22 233 0.0 0.0 0.00 0.13 0.13 92 1011.1
20260507231953 22 238 0.0 0.0 0.00 0.13 0.13 93 1010.9
20260507231448 23 206 0.0 0.0 0.00 0.13 0.13 91 1011.0
20260507230946 23 239 0.0 0.0 0.00 0.13 0.13 91 1010.9
20260507230443 23 224 0.0 0.0 0.00 0.13 0.13 91 1011.0
20260507225938 23 232 0.0 0.0 0.00 0.13 0.13 90 1011.0
20260507225429 23 236 0.0 0.0 0.00 0.13 0.13 90 1010.7
20260507224925 23 277 0.0 0.0 0.00 0.13 0.13 90 1010.9
20260507224421 23 168 0.0 0.0 0.00 0.13 0.13 87 1011.0
20260507223918 23 229 0.0 0.0 0.00 0.13 0.13 88 1011.0
20260507223414 23 225 0.0 0.0 0.00 0.13 0.13 89 1011.0
20260507222911 23 239 0.0 0.0 0.00 0.13 0.13 87 1011.0
20260507222408 24 236 0.0 0.0 0.00 0.13 0.13 89 1011.1
20260507221905 24 175 0.0 0.0 0.00 0.13 0.13 89 1010.7
20260507221401 24 242 0.0 0.0 0.00 0.13 0.13 88 1010.7
20260507220857 24 241 0.0 0.0 0.00 0.13 0.13 87 1010.7
20260507220355 24 231 0.0 0.0 0.00 0.13 0.13 90 1010.7
20260507215851 25 229 0.0 0.0 0.00 0.13 0.13 91 1010.6
20260507215348 25 213 0.0 0.0 0.00 0.13 0.13 88 1010.6
20260507214845 25 259 0.0 0.0 0.00 0.13 0.13 87 1011.0
20260507214343 26 259 0.0 0.0 0.00 0.13 0.13 84 1010.7
20260507213838 25 239 0.0 0.0 0.00 0.13 0.13 86 1010.9
20260507213335 25 235 0.0 0.0 0.00 0.13 0.13 86 1010.6
20260507212831 25 225 0.0 0.0 0.00 0.13 0.13 85 1010.9
20260507212327 25 253 0.0 0.0 0.00 0.13 0.13 90 1010.9
20260507211824 25 63 0.0 0.0 0.00 0.13 0.13 91 1010.9
20260507211321 23 230 0.0 0.0 0.00 0.13 0.13 93 1010.8
20260507210818 23 221 0.0 0.0 0.00 0.13 0.13 94 1011.0
20260507210315 23 220 0.0 0.0 0.00 0.13 0.13 96 1011.0
20260507205811 23 219 0.0 0.0 0.00 0.13 0.13 98 1011.0
20260507205308 23 217 0.0 0.0 0.00 0.13 0.13 97 1011.0
20260507204804 23 219 0.0 0.0 0.00 0.13 0.13 97 1011.0
20260507204302 23 220 0.0 0.0 0.00 0.13 0.13 97 1011.1
20260507203800 23 208 0.0 0.0 0.00 0.13 0.13 97 1011.0
20260507203258 23 208 0.0 0.0 0.00 0.13 0.13 97 1011.0
20260507202753 22 208 0.0 0.0 0.00 0.13 0.13 97 1011.1
20260507202249 22 208 0.0 0.0 0.00 0.13 0.13 97 1011.1
20260507201744 22 208 0.0 0.0 0.00 0.13 0.13 97 1011.1
20260507201241 23 194 0.0 0.0 0.00 0.13 0.13 98 1011.1
20260507200737 23 202 0.0 0.0 0.00 0.13 0.13 97 1011.0
20260507200233 23 190 0.0 0.0 0.00 0.13 0.13 96 1011.3
20260507195730 23 212 0.0 0.0 0.00 0.13 0.13 96 1011.2
20260507195227 23 208 0.0 0.0 0.00 0.13 0.13 95 1011.2
20260507194724 23 234 0.0 0.0 0.00 0.13 0.13 94 1011.1
20260507194220 23 167 0.0 0.0 0.00 0.13 0.13 96 1011.2
20260507193717 23 177 0.0 0.0 0.00 0.13 0.13 96 1011.1
20260507193214 23 226 0.0 0.0 0.00 0.13 0.13 97 1011.0
20260507192710 23 282 0.0 0.0 0.00 0.13 0.13 97 1011.1
20260507192207 23 234 0.0 0.0 0.00 0.13 0.13 97 1011.2
20260507191703 23 202 0.0 0.0 0.00 0.13 0.13 98 1011.3
20260507191200 23 352 0.0 0.0 0.00 0.13 0.13 99 1011.2
20260507190651 23 305 0.0 0.0 0.00 0.13 0.13 99 1011.1
20260507190149 22 251 0.0 0.0 0.00 0.13 0.13 99 1011.1
20260507185647 22 88 0.0 0.0 0.00 0.13 0.13 99 1011.2
20260507185144 23 232 0.0 0.0 0.00 0.13 0.13 99 1011.3
20260507184642 22 200 0.0 0.0 0.00 0.13 0.13 99 1011.2
20260507184140 22 215 0.0 0.0 0.00 0.13 0.13 99 1011.2
20260507183636 22 96 0.0 0.0 0.00 0.13 0.13 99 1011.1
20260507183133 21 234 0.0 0.0 0.00 0.13 0.13 99 1011.4
20260507182629 21 261 0.0 0.0 0.00 0.13 0.13 99 1011.4
20260507182126 22 238 0.0 0.0 0.00 0.13 0.13 99 1011.5
20260507181622 22 278 0.0 0.0 0.00 0.13 0.13 99 1011.3
20260507181118 21 278 0.0 0.0 0.00 0.13 0.13 99 1011.6
20260507180615 21 228 0.0 0.0 0.00 0.13 0.13 99 1011.4
20260507180112 21 231 0.0 0.0 0.00 0.13 0.13 99 1011.3
20260507175608 21 201 0.0 0.0 0.00 0.13 0.13 99 1011.2
20260507175106 21 208 0.0 0.0 0.00 0.13 0.13 99 1010.9
20260507174602 20 214 0.0 0.0 0.00 0.13 0.13 99 1011.3
20260507174100 20 213 0.0 0.0 0.00 0.13 0.13 99 1011.2
20260507173557 20 207 0.0 0.0 0.00 0.13 0.13 99 1011.0
20260507173054 20 206 0.0 0.0 0.00 0.13 0.13 99 1011.8
20260507172550 20 207 0.0 0.0 0.00 0.13 0.13 99 1012.0
20260507172047 20 206 0.0 0.0 0.00 0.13 0.13 99 1011.8
20260507171542 20 207 0.0 0.0 0.00 0.13 0.13 99 1012.0
20260507171040 20 207 0.0 0.0 0.00 0.13 0.13 99 1011.7
20260507170536 20 197 0.0 0.0 0.00 0.13 0.13 99 1011.9
20260507170034 20 194 0.0 0.0 0.00 0.13 0.13 99 1011.4
20260507165529 20 198 0.0 0.0 0.00 0.13 0.13 99 1012.0
20260507165026 20 242 0.0 0.0 0.00 0.13 0.13 99 1012.1
20260507164522 20 212 0.0 0.0 0.00 0.13 0.13 99 1011.9
20260507164019 20 219 0.0 0.0 0.00 0.13 0.13 99 1012.2
20260507163516 20 256 0.0 0.0 0.00 0.13 0.13 99 1012.4
20260507163015 20 334 0.0 0.0 0.00 0.13 0.13 99 1012.4
20260507162509 20 217 0.0 0.0 0.00 0.13 0.13 99 1012.5
20260507162006 20 182 0.0 0.0 0.00 0.13 0.13 99 1012.3
20260507161502 20 241 0.0 0.0 0.00 0.13 0.13 99 1012.3
20260507160959 20 225 0.0 0.0 0.00 0.13 0.13 99 1012.5
20260507160455 20 217 0.0 0.0 0.00 0.13 0.13 99 1012.5
20260507155951 20 143 0.0 0.0 0.00 0.13 0.13 99 1012.4
20260507155447 20 213 0.0 0.0 0.00 0.13 0.13 99 1012.2
20260507154944 20 217 0.0 0.0 0.00 0.13 0.13 99 1012.2
20260507154441 20 245 0.0 0.0 0.00 0.13 0.13 99 1012.2
20260507153938 20 229 0.0 0.0 0.00 0.13 0.13 99 1012.4
20260507153435 20 224 0.0 0.0 0.00 0.13 0.13 99 1012.2
20260507152931 20 240 0.0 0.0 0.00 0.13 0.13 99 1011.8
20260507152427 20 222 0.0 0.0 0.00 0.13 0.13 99 1011.5
20260507151923 20 195 0.0 0.0 0.00 0.13 0.13 99 1011.2
20260507151420 20 201 0.0 0.0 0.00 0.13 0.13 99 1011.3
20260507150917 20 190 0.0 0.0 0.00 0.13 0.13 99 1011.4
20260507150414 20 184 0.0 0.0 0.00 0.13 0.13 99 1011.6
20260507145910 20 166 0.0 0.0 0.00 0.13 0.13 99 1011.7
20260507145406 20 355 0.0 0.0 0.00 0.13 0.13 99 1011.6
20260507144903 20 234 0.0 0.0 0.00 0.13 0.13 99 1011.4
20260507144400 20 229 0.0 0.0 0.00 0.13 0.13 99 1011.9
20260507143857 20 197 0.0 0.0 0.00 0.13 0.13 99 1011.2
20260507143354 20 211 0.0 0.0 0.00 0.13 0.13 99 1011.4
20260507142851 20 210 0.0 0.0 0.00 0.13 0.13 99 1011.1
20260507142347 20 200 0.0 0.0 0.00 0.13 0.13 99 1011.8
20260507141844 20 217 0.0 0.0 0.00 0.13 0.13 99 1012.0
20260507141340 20 215 0.0 0.0 0.00 0.13 0.13 99 1011.8
20260507140837 20 154 0.0 0.0 0.00 0.13 0.13 99 1012.0
20260507140334 20 184 0.0 0.0 0.00 0.13 0.13 99 1012.4
20260507135832 20 205 0.0 0.0 0.00 0.13 0.13 99 1012.4
20260507135328 20 182 0.0 0.0 0.00 0.13 0.13 99 1012.3
20260507134825 20 182 0.0 0.0 0.00 0.13 0.13 99 1011.8
20260507134321 20 219 0.0 0.0 0.00 0.13 0.13 99 1011.9
20260507133817 20 213 0.0 0.0 0.00 0.13 0.13 99 1012.6
20260507133313 20 205 0.0 0.0 0.00 0.13 0.13 99 1012.7
20260507132812 20 252 0.0 0.0 0.00 0.13 0.13 99 1012.7
20260507132308 20 225 0.0 0.0 0.00 0.13 0.13 99 1011.9
20260507131805 20 221 0.0 0.0 0.00 0.13 0.13 99 1012.3
20260507131302 20 234 0.0 0.0 0.00 0.13 0.13 99 1012.0
20260507130758 20 237 0.0 0.0 0.00 0.13 0.13 99 1012.1
20260507130256 20 206 0.0 0.0 0.00 0.13 0.13 99 1012.0
20260507125755 20 229 0.0 0.0 0.00 0.13 0.13 99 1012.2
20260507125252 20 211 0.0 0.0 0.00 0.13 0.13 99 1012.0
20260507124749 19 214 0.0 0.0 0.00 0.13 0.13 99 1011.8
20260507124245 19 215 0.0 0.0 0.00 0.13 0.13 99 1012.1
20260507123744 19 216 0.0 0.0 0.00 0.13 0.13 99 1012.1
20260507123241 19 211 0.0 0.0 0.00 0.13 0.13 99 1011.7
20260507122736 19 223 0.0 0.0 0.00 0.13 0.13 99 1011.7
20260507122232 19 174 0.0 0.0 0.00 0.13 0.13 99 1011.6
20260507121728 19 209 0.0 0.0 0.00 0.13 0.13 99 1011.6
20260507121224 19 112 0.0 0.0 0.00 0.13 0.13 99 1011.4
20260507120720 19 211 0.0 0.0 0.00 0.13 0.13 99 1011.4
20260507120218 19 207 0.0 0.0 0.00 0.13 0.13 99 1010.9
20260507115714 19 188 0.0 0.0 0.00 0.13 0.13 99 1010.8
20260507115209 19 208 0.0 0.0 0.00 0.13 0.13 99 1010.8
20260507114705 19 235 0.0 0.0 0.00 0.13 0.13 99 1011.2
20260507114203 18 228 0.0 0.0 0.00 0.13 0.13 99 1010.6
20260507113700 18 227 0.0 0.0 0.00 0.13 0.13 99 1009.7
20260507113157 18 207 0.0 0.0 0.00 0.13 0.13 99 1010.1
20260507112655 18 180 0.0 0.0 0.00 0.13 0.13 99 1010.7
20260507112151 18 230 0.0 0.0 0.00 0.13 0.13 99 1011.0
20260507111649 18 190 0.0 0.0 0.00 0.13 0.13 99 1010.9
20260507111145 18 5 0.0 0.0 0.00 0.13 0.13 99 1011.2
20260507110641 19 31 0.0 0.0 0.00 0.13 0.13 99 1011.6
20260507110138 19 196 0.0 0.0 0.00 0.13 0.13 99 1012.1
20260507105635 19 194 0.0 0.0 0.00 0.13 0.13 99 1012.1
20260507105131 19 234 0.0 0.0 0.00 0.13 0.13 99 1012.5
20260507104629 19 318 0.0 0.0 0.00 0.13 0.13 99 1012.5
20260507104125 19 193 0.0 0.0 0.00 0.13 0.13 99 1012.0
20260507103621 19 228 0.0 0.0 0.00 0.13 0.13 99 1012.6
20260507103118 19 234 0.0 0.0 0.00 0.13 0.13 99 1012.5
20260507102614 19 225 0.0 0.0 0.00 0.13 0.13 99 1012.8
20260507102110 19 225 0.0 0.0 0.00 0.13 0.13 99 1012.9
20260507101607 19 225 0.0 0.0 0.00 0.13 0.13 99 1012.9
20260507101102 19 225 0.0 0.0 0.00 0.13 0.13 99 1012.9
20260507100600 19 228 0.0 0.0 0.00 0.13 0.13 99 1013.1
20260507100058 19 221 0.0 0.0 0.00 0.13 0.13 99 1012.9
20260507095555 19 215 0.0 0.0 0.00 0.13 0.13 99 1012.7
20260507095052 19 216 0.0 0.0 0.00 0.13 0.13 99 1013.1
20260507094548 19 223 0.0 0.0 0.00 0.13 0.13 99 1012.9
20260507094046 19 208 0.0 0.0 0.00 0.13 0.13 99 1012.5
20260507093543 19 182 0.0 0.0 0.00 0.13 0.13 99 1012.6
20260507093042 19 194 0.0 0.0 0.00 0.13 0.13 99 1012.9
20260507092537 19 204 0.0 0.0 0.00 0.13 0.13 99 1013.0
20260507092034 19 213 0.0 0.0 0.00 0.13 0.13 99 1012.9
20260507091531 19 210 0.0 0.0 0.00 0.13 0.13 99 1013.4
20260507091027 19 0 0.0 0.0 0.00 0.13 0.13 99 1013.6
20260507090523 19 208 0.0 0.0 0.00 0.13 0.13 99 1013.3
20260507090020 19 195 0.0 0.0 0.00 0.13 0.13 99 1013.4
20260507085517 20 179 0.0 0.0 0.00 0.13 0.13 99 1014.0
20260507085014 20 212 0.0 0.0 0.00 0.13 0.13 99 1014.6
20260507084511 20 207 0.0 0.0 0.00 0.13 0.13 99 1014.6
20260507084008 20 233 0.0 0.0 0.00 0.13 0.13 99 1014.6
20260507083504 20 223 0.0 0.0 0.18 0.13 0.13 99 1014.1
20260507083001 20 206 0.0 0.0 0.18 0.13 0.13 99 1014.1
20260507082457 20 217 0.0 0.0 0.18 0.13 0.13 99 1013.4
20260507081953 20 197 0.0 0.0 0.00 0.10 0.10 99 1013.5
20260507081449 20 207 0.0 0.0 0.00 0.10 0.10 99 1013.8
20260507080947 20 220 0.0 0.0 0.00 0.10 0.10 99 1014.1
20260507080442 20 202 0.0 0.0 0.13 0.10 0.10 99 1013.9
20260507075937 20 228 0.0 0.0 0.13 0.10 0.10 99 1013.8
20260507075435 20 195 0.0 0.0 0.00 0.08 0.08 99 1013.7
20260507074931 20 207 0.0 0.0 0.00 0.08 0.08 99 1013.7
20260507074428 20 208 0.0 0.0 0.00 0.08 0.08 99 1013.7
20260507073926 20 202 0.0 0.0 0.00 0.08 0.08 99 1013.8
20260507073422 20 201 0.0 0.0 0.00 0.08 0.08 99 1013.7
20260507072919 20 219 0.0 0.0 0.00 0.08 0.08 99 1013.5
20260507072416 20 206 0.0 0.0 0.18 0.08 0.08 98 1013.2
20260507071914 20 102 0.0 0.0 0.18 0.08 0.08 98 1013.4
20260507071411 20 206 0.0 0.0 0.18 0.05 0.05 97 1013.6
20260507070907 20 7 0.0 0.0 0.18 0.05 0.05 96 1013.8
20260507070405 20 245 0.0 0.0 0.13 0.03 0.03 95 1013.8
20260507065901 20 217 0.0 0.0 0.13 0.03 0.03 94 1014.4
20260507065358 20 187 0.0 0.0 0.00 0.00 0.00 93 1014.0
20260507064855 20 115 0.0 0.0 0.00 0.00 0.00 94 1014.4
20260507064353 20 53 0.0 0.0 0.00 0.00 0.00 92 1014.1
20260507063851 20 198 0.0 0.0 0.00 0.00 0.00 91 1014.1
20260507063348 20 198 0.0 0.0 0.00 0.00 0.00 88 1013.5